Terminal Aerodrome Forecast
Issued by NWS

Home | Current Version | Previous Version | Text Only | Print | Product List | Glossary On
Versions: 1 2 3 4 5 6 7 8 9 10 11 12 13
000
FTUS43 KOAX 181144
TAFBFF
TAF
KBFF 181144Z 1812/1912 33005KT P6SM -RA SCT015 OVC035
     FM181500 32009KT P6SM SCT025 OVC045
     FM182100 34010KT P6SM -SHRA SCT025 BKN050
     FM190500 34018G26KT P6SM -RA BKN015 OVC030=

USA.gov is the U.S. government's official web portal to all federal, state and local government web resources and services.